This demonstration page uses our WeatherBlox Daily Observations layout. Learn more.

Left ArrowRight Arrow

39.01783, -85.05884

Hourly Observations for February 22, 2021

Temp ( °F °C ) Dew Point ( °F °C ) Humidity (%) Winds ( mph kmh ) Pressure ( in mb ) Visibility ( mi km ) Precip ( " mm )
12:52 am 00:52 Cloudy with Light Rain 46 7.8 26 -3.3 46 46 S 17 28 29.92 1013 10 16 0.00 0.00
1:52 am 01:52 Cloudy with Light Rain 46 7.8 27 -2.8 47 47 SSW 18 30 29.89 1012 10 16 0.00 0.00
2:52 am 02:52 Cloudy with Light Rain 45 7.2 32 0 61 61 SSW 17 28 29.87 1012 10 16 0.00 0.00
3:52 am 03:52 Cloudy with Light Rain 44 6.7 34 1.1 68 68 SW 18 30 29.86 1011 10 16 0.01 0.25
4:03 am 04:03 Cloudy with Light Rain 43 6.1 34 1.1 71 71 SSW 20 31 29.86 1011 10 16 0.00 0.00
4:52 am 04:52 Cloudy with Light Rain 41 5 36 2.2 82 82 SW 12 19 29.85 1011 3 5 0.01 0.25
5:07 am 05:07 Cloudy with Light Rain 40 4.4 37 2.8 89 89 SSW 12 19 29.87 1012 3 5 0.00 0.00
5:19 am 05:19 Cloudy with Light Rain 40 4.4 37 2.8 89 89 SSW 13 20 29.86 1011 3 5 0.01 0.25
5:52 am 05:52 Cloudy with Mist and Fog 40 4.4 37 2.8 89 89 SW 9 15 29.82 1010 3 5 0.01 0.25
6:39 am 06:39 Cloudy with Mist and Fog 40 4.4 36 2.2 86 86 SW 13 20 29.88 1012 3 5 0.00 0.00
6:52 am 06:52 Cloudy with Mist and Fog 40 4.4 36 2.2 86 86 SW 12 19 29.84 1011 3 5 0.00 0.00
7:30 am 07:30 Cloudy with Light Rain 39 3.9 36 2.2 89 89 SW 12 19 29.86 1011 2 3 0.00 0.00
7:52 am 07:52 Cloudy with Mist and Fog 39 3.9 36 2.2 89 89 WSW 12 19 29.83 1010 6 10 0.00 0.00
8:09 am 08:09 Cloudy with Mist and Fog 39 3.9 35 1.7 86 86 WSW 12 19 29.87 1012 7 11 0.00 0.00
8:52 am 08:52 Cloudy with Light Rain 37 2.8 33 0.6 86 86 W 17 28 29.88 1012 3 5 0.01 0.25
9:52 am 09:52 Cloudy with Haze 37 2.8 32 0 82 82 W 18 30 29.91 1013 6 10 0.00 0.00
10:52 am 10:52 Cloudy with Haze 36 2.2 30 -1.1 79 79 WSW 15 24 29.93 1014 6 10 0.00 0.00
11:52 am 11:52 Cloudy with Haze 36 2.2 29 -1.7 76 76 W 15 24 29.94 1014 6 10 0.00 0.00
12:05 pm 12:05 Cloudy with Haze 36 2.2 29 -1.7 76 76 WSW 17 28 29.98 1015 6 10 0.00 0.00
12:52 pm 12:52 Cloudy 37 2.8 27 -2.8 67 67 W 22 35 29.94 1014 8 13 0.00 0.00
1:52 pm 13:52 Cloudy 37 2.8 28 -2.2 70 70 W 13 20 29.93 1014 7 11 0.00 0.00
2:52 pm 14:52 Cloudy 37 2.8 28 -2.2 70 70 WSW 15 24 29.96 1014 7 11 0.00 0.00
3:52 pm 15:52 Cloudy 37 2.8 27 -2.8 67 67 W 15 24 29.96 1014 7 11 0.00 0.00
4:52 pm 16:52 Mostly Cloudy 37 2.8 28 -2.2 70 70 WSW 9 15 29.96 1015 7 11 0.00 0.00
5:29 pm 17:29 Hazy 37 2.8 28 -2.2 70 70 SW 12 19 30.00 1016 6 10 0.00 0.00
5:52 pm 17:52 Hazy 37 2.8 27 -2.8 67 67 SW 10 17 29.96 1015 6 10 0.00 0.00
6:52 pm 18:52 Mostly Cloudy 36 2.2 27 -2.8 70 70 SSW 9 15 29.95 1014 8 13 0.00 0.00
7:52 pm 19:52 Mostly Cloudy 36 2.2 28 -2.2 73 73 SSW 10 17 29.95 1014 7 11 0.00 0.00
8:52 pm 20:52 Cloudy 35 1.7 27 -2.8 72 72 SSW 8 13 29.93 1014 8 13 0.00 0.00
9:52 pm 21:52 Partly Cloudy 34 1.1 27 -2.8 76 76 S 10 17 29.92 1013 7 11 0.00 0.00
10:52 pm 22:52 Hazy 34 1.1 27 -2.8 76 76 S 9 15 29.91 1013 6 10 0.00 0.00
11:52 pm 23:52 Clear 34 1.1 28 -2.2 79 79 SSW 9 15 29.88 1012 7 11 0.00 0.00

Powered by AerisWeather